GW3984 Weather Reports


Display with metric or nautical units.
time (UTC)temp
F
wind
direction
speed
MPH
gust
MPH
rain 1hr
in
rain 24hr
in
rain mn
in
humidity
%
barometer
mb
20260504201506 78 180 3.0 8.0 0.00 0.00 0.00 63 1012.5
20260504201432 78 94 1.0 6.0 0.00 0.00 0.00 63 1011.8
20260504200012 78 101 2.0 7.0 0.00 0.00 0.00 63 1012.7
20260504195332 78 61 1.0 8.0 0.00 0.00 0.00 63 1012.2
20260504194514 78 185 2.0 10.0 0.00 0.00 0.00 63 1012.9
20260504194321 79 134 1.0 8.0 0.00 0.00 0.00 63 1012.2
20260504193014 80 338 1.0 9.0 0.00 0.00 0.00 64 1012.9
20260504192200 79 163 3.0 10.0 0.00 0.00 0.00 62 1012.4
20260504191516 78 117 5.0 12.0 0.00 0.00 0.00 61 1013.2
20260504191155 80 111 0.0 7.0 0.00 0.00 0.00 63 1012.5
20260504190205 81 76 1.0 6.0 0.00 0.00 0.00 59 1012.5
20260504190015 81 214 1.0 9.0 0.00 0.00 0.00 60 1013.2
20260504185152 81 160 1.0 7.0 0.00 0.00 0.00 61 1012.7
20260504184515 81 175 1.0 9.0 0.00 0.00 0.00 61 1013.4
20260504183050 81 190 0.0 5.0 0.00 0.00 0.00 58 1013.3
20260504183008 80 204 1.0 7.0 0.00 0.00 0.00 58 1014.0
20260504182032 80 1 0.0 3.0 0.00 0.00 0.00 60 1013.1
20260504181507 80 320 1.0 4.0 0.00 0.00 0.00 60 1014.0
20260504181020 80 88 0.0 5.0 0.00 0.00 0.00 61 1013.4
20260504180018 81 200 0.0 5.0 0.00 0.00 0.00 58 1014.1
20260504175955 81 56 1.0 8.0 0.00 0.00 0.00 59 1013.5
20260504174940 79 53 1.0 8.0 0.00 0.00 0.00 62 1013.5
20260504174517 78 138 2.0 9.0 0.00 0.00 0.00 64 1014.2
20260504173928 78 113 1.0 8.0 0.00 0.00 0.00 66 1013.7
20260504173019 77 89 3.0 10.0 0.00 0.00 0.00 61 1014.4
20260504172920 78 125 1.0 10.0 0.00 0.00 0.00 62 1013.7
20260504171916 78 316 2.0 10.0 0.00 0.00 0.00 64 1013.8
20260504171516 77 215 3.0 12.0 0.00 0.00 0.00 63 1014.7
20260504170902 76 189 2.0 7.0 0.00 0.00 0.00 62 1014.0
20260504150504 69 129 0.0 5.0 0.00 0.00 0.00 80 1015.1
20260504140458 66 127 1.0 5.0 0.00 0.00 0.00 80 1015.0
20260504130124 63 125 0.0 1.0 0.00 0.00 0.00 83 1015.0
20260504081524 62 159 0.0 2.0 0.00 0.00 0.00 79 1016.2
20260504081242 62 118 0.0 0.0 0.00 0.00 0.00 79 1015.5
20260504050704 66 127 1.0 7.0 0.00 0.00 0.00 69 1017.3
20260504050015 65 68 2.0 9.0 0.00 0.00 0.00 68 1018.0
20260504045638 66 171 0.0 4.0 0.00 0.00 0.00 69 1017.2
20260504044648 66 116 0.0 3.0 0.00 0.00 0.00 68 1017.4
20260504044529 66 171 0.0 7.0 0.00 0.00 0.00 67 1018.2
20260504043644 66 158 0.0 4.0 0.00 0.00 0.00 67 1017.5
20260504043026 66 170 0.0 6.0 0.00 0.00 0.00 67 1018.2
20260504042704 66 162 0.0 4.0 0.00 0.00 0.00 67 1017.5
20260504041510 66 148 0.0 6.0 0.00 0.00 0.00 65 1018.3
20260504040555 67 163 0.0 3.0 0.00 0.00 0.00 66 1017.7
20260504040026 67 137 0.0 2.0 0.00 0.00 0.00 64 1018.4
20260504035540 68 119 0.0 5.0 0.00 0.00 0.00 64 1017.6
20260504034521 67 155 1.0 7.0 0.00 0.00 0.00 62 1018.3
20260504034509 68 153 1.0 5.0 0.00 0.00 0.00 63 1017.6
20260504033020 68 117 1.0 4.0 0.00 0.00 0.00 61 1018.3
20260504032350 68 145 0.0 3.0 0.00 0.00 0.00 61 1017.5
20260504031518 67 149 1.0 6.0 0.00 0.00 0.00 60 1018.2
20260504031403 68 146 0.0 4.0 0.00 0.00 0.00 61 1017.3
20260504030359 66 141 0.0 4.0 0.00 0.00 0.00 63 1017.3
20260504030014 64 130 1.0 6.0 0.00 0.00 0.00 1018.1
20260504025338 61 112 0.0 0.0 0.00 0.00 0.00 73 1017.3
20260504024510 60 158 0.0 0.0 0.00 0.00 0.00 73 1018.0
20260504024316 61 157 0.0 0.0 0.00 0.00 0.00 73 1017.3
20260504023306 61 157 0.0 0.0 0.00 0.00 0.00 72 1017.2
20260504023008 61 158 0.0 0.0 0.00 0.00 0.00 71 1017.9
20260504021507 62 158 0.0 0.0 0.00 0.00 0.00 69 1018.0
20260504021158 63 157 0.0 0.0 0.00 0.00 0.00 70 1017.3
20260504020024 63 158 0.0 0.0 0.00 0.00 0.00 68 1018.0
20260504015031 64 157 0.0 0.0 0.00 0.00 0.00 66 1017.0
20260504014524 64 158 0.0 0.0 0.00 0.00 0.00 64 1017.8
20260504014055 65 157 0.0 0.0 0.00 0.00 0.00 62 1017.0
20260504013032 66 158 0.0 0.0 0.00 0.00 0.00 58 1017.6
20260504012003 69 157 0.0 0.0 0.00 0.00 0.00 55 1016.8
20260504011520 69 158 0.0 1.0 0.00 0.00 0.00 51 1017.5
20260504010015 71 158 0.0 2.0 0.00 0.00 0.00 47 1017.4
20260504005839 71 157 0.0 0.0 0.00 0.00 0.00 48 1016.6
20260504004808 72 102 0.0 1.0 0.00 0.00 0.00 48 1016.6
20260504004514 72 144 0.0 3.0 0.00 0.00 0.00 46 1017.4
20260504003758 73 141 0.0 0.0 0.00 0.00 0.00 45 1016.7
20260504003012 73 166 0.0 3.0 0.00 0.00 0.00 43 1017.6
20260504002816 73 169 0.0 2.0 0.00 0.00 0.00 44 1016.8
20260504001817 74 102 0.0 6.0 0.00 0.00 0.00 42 1016.9
20260504001515 74 122 2.0 8.0 0.00 0.00 0.00 41 1017.7
20260504000049 74 155 1.0 4.0 0.00 0.00 0.00 40 1017.8
20260503235634 75 137 0.0 6.0 0.00 0.00 0.00 41 1017.1
20260503234642 75 94 1.0 6.0 0.00 0.00 0.00 38 1017.2
20260503234526 75 147 2.0 8.0 0.00 0.00 0.00 37 1018.0
20260503233617 76 124 1.0 6.0 0.00 0.00 0.00 40 1017.2
20260503233023 75 138 1.0 8.0 0.00 0.00 0.00 38 1018.0
20260503232544 76 202 1.0 6.0 0.00 0.00 0.00 39 1017.3
20260503231533 76 190 1.0 7.0 0.00 0.00 0.00 38 1017.3
20260503231520 76 168 3.0 7.0 0.00 0.00 0.00 37 1018.0
20260503230521 76 112 1.0 7.0 0.00 0.00 0.00 38 1017.3
20260503230020 76 169 2.0 9.0 0.00 0.00 0.00 37 1018.3
20260503224516 76 133 2.0 8.0 0.00 0.00 0.00 36 1018.1
20260503224353 76 91 1.0 6.0 0.00 0.00 0.00 37 1017.3
20260503223409 76 160 1.0 6.0 0.00 0.00 0.00 35 1017.4
20260503223017 76 156 0.0 8.0 0.00 0.00 0.00 37 1018.2
20260503222340 77 129 1.0 5.0 0.00 0.00 0.00 37 1017.6
20260503221514 77 57 0.0 7.0 0.00 0.00 0.00 36 1018.5
20260503221347 77 217 0.0 5.0 0.00 0.00 0.00 37 1017.8
20260503220027 76 157 2.0 9.0 0.00 0.00 0.00 36 1018.7
20260503215222 76 120 1.0 6.0 0.00 0.00 0.00 36 1018.1
20260503214527 75 117 1.0 7.0 0.00 0.00 0.00 38 1019.1
20260503214148 77 79 0.0 5.0 0.00 0.00 0.00 39 1018.4
20260503213212 77 94 0.0 3.0 0.00 0.00 0.00 36 1018.6
20260503213024 77 208 1.0 4.0 0.00 0.00 0.00 36 1019.4
20260503212215 77 100 1.0 6.0 0.00 0.00 0.00 36 1018.7
20260503211523 77 114 3.0 7.0 0.00 0.00 0.00 35 1019.6
20260503211234 77 120 1.0 8.0 0.00 0.00 0.00 36 1018.8
20260503210023 76 318 2.0 9.0 0.00 0.00 0.00 39 1019.8
20260503205127 77 124 0.0 6.0 0.00 0.00 0.00 40 1019.3
20260503204522 76 198 2.0 8.0 0.00 0.00 0.00 37 1020.3
20260503204059 77 176 1.0 6.0 0.00 0.00 0.00 36 1019.5
20260503203117 77 162 1.0 4.0 0.00 0.00 0.00 40 1019.7
20260503203025 76 59 1.0 7.0 0.00 0.00 0.00 39 1020.4